• Join FlightAware (Why Join?)
  • Login
  • US Flag 
04:03PM EST


 

Airport Tracker/Info


-or-


 

Live Flight TrackerFlight Track Log ✈ SWA3673 ✈ 02-Mar-2013 ✈ KBNA - KRDU

Flight Track Log - Related Links

Times and Time Zones

All times are in EST time to prevent confusion due to time zone crossing. See the SWA3673 flight status page for this flight to view local times or setup timezone preferences in your user account.

Time Position Orientation Groundspeed Altitude Reporting Facility
EST Latitude Longitude Course Direction KTS MPH feet Rate Location/Type
07:37PM 36.1667 -86.6167 102° East 200 230 3,900  Level Nashville TRACON
07:38PM 36.1500 -86.5167 102° East 286 329 7,700 3,090 Climbing Nashville TRACON
07:39PM 36.1369 -86.4389 102° East 276 318 10,800 3,268 Climbing Memphis Center
07:40PM 36.1178 -86.3281 102° East 323 372 14,400 3,317 Climbing Memphis Center
07:41PM 36.0964 -86.2108 103° East 343 395 17,600 2,829 Climbing Memphis Center
07:42PM 36.0731 -86.0861 103° East 364 419 20,200 2,656 Climbing Memphis Center
07:43PM 36.0631 -85.9542 95° East 380 437 23,000 2,607 Climbing Memphis Center
07:44PM 36.0522 -85.8058 95° East 390 449 25,500 2,390 Climbing Memphis Center
07:45PM 36.0431 -85.6644 95° East 408 470 27,900 2,475 Climbing Memphis Center
07:46PM 36.0378 -85.6128 97° East 395 455 28,800 2,231 Climbing Atlanta Center
07:47PM 36.0269 -85.4689 95° East 407 468 30,800 1,100 Climbing Atlanta Center
07:48PM 36.0183 -85.3250 94° East 414 476 31,000 600 Climbing Atlanta Center
07:49PM 36.0383 -85.1789 80° East 414 476 32,000 950 Climbing Atlanta Center
07:50PM 36.0647 -85.0483 76° East 425 489 32,900 1,100 Climbing Atlanta Center
07:51PM 36.0950 -84.8919 76° East 438 504 34,200 1,350 Climbing Atlanta Center
07:52PM 36.1253 -84.7353 77° East 454 522 35,600 1,250 Climbing Atlanta Center
07:53PM 36.1553 -84.5789 77° East 465 535 36,700 1,100 Climbing Atlanta Center
07:54PM 36.1850 -84.4169 77° East 470 541 37,800 1,000 Climbing Atlanta Center
07:55PM 36.2167 -84.2522 77° East 475 547 38,700 600 Climbing Atlanta Center
07:56PM 36.2481 -84.0928 76° East 480 552 39,000 150 Climbing Atlanta Center
07:57PM 36.2772 -83.9306 77° East 475 547 39,000  Level Atlanta Center
07:58PM 36.3061 -83.7656 78° East 483 556 39,000  Level Atlanta Center
07:59PM 36.3369 -83.6031 77° East 483 556 39,000  Level Atlanta Center
08:00PM 36.3656 -83.4406 78° East 483 556 39,000  Level Atlanta Center
08:01PM 36.3958 -83.2778 77° East 483 556 39,000 -200 Level Atlanta Center
08:02PM 36.4261 -83.1125 77° East 483 556 38,600 -700 Descending Atlanta Center
08:03PM 36.4581 -82.9442 77° East 491 565 37,600 -950 Descending Atlanta Center
08:04PM 36.4856 -82.7811 78° East 486 559 36,700 -950 Descending Atlanta Center
08:05PM 36.5153 -82.6206 77° East 486 559 35,700 -1,000 Descending Atlanta Center
08:06PM 36.5422 -82.4572 78° East 486 559 34,700 -950 Descending Atlanta Center
08:07PM 36.5694 -82.2992 78° East 475 547 33,800 -850 Descending Atlanta Center
08:08PM 36.5964 -82.1433 78° East 463 533 33,000 -400 Descending Atlanta Center
08:09PM 36.6231 -81.9875 78° East 463 533 33,000 -150 Level Atlanta Center
08:10PM 36.6494 -81.8292 78° East 463 533 32,700 -650 Descending Atlanta Center
08:11PM 36.6861 -81.6753 73° East 463 533 31,700 -1,100 Descending Atlanta Center
08:12PM 36.7225 -81.5136 74° East 451 519 30,500 -1,050 Descending Atlanta Center
08:13PM 36.7514 -81.3911 74° East 425 489 29,600 -750 Descending Atlanta Center
08:14PM 36.7797 -81.2631 75° East 397 457 29,000 -178 Descending Atlanta Center
08:16PM 36.8542 -80.9444 74° East 398 458 29,000 -177 Level Washington Center
08:17PM 36.8808 -80.8139 76° East 392 451 28,400 -793 Descending Washington Center
08:18PM 36.9117 -80.6808 74° East 392 451 27,400 -1,261 Descending Washington Center
08:19PM 36.9400 -80.5528 74° East 392 451 25,900 -1,200 Descending Washington Center
08:20PM 36.9708 -80.4117 75° East 387 445 25,000 -850 Descending Washington Center
08:21PM 36.9697 -80.2817 91° East 375 432 24,200 -605 Descending Washington Center
08:22PM 36.9200 -80.1617 117° Southeast 369 425 23,800 -595 Descending Washington Center
08:23PM 36.8725 -80.0422 116° Southeast 374 430 23,000 -403 Descending Washington Center
08:24PM 36.8242 -79.9381 120° Southeast 391 450 23,000  Level Washington Center
08:25PM 36.7742 -79.8186 118° Southeast 391 450 23,000 -99 Level Washington Center
08:26PM 36.7261 -79.6994 117° Southeast 391 450 22,800 -600 Descending Washington Center
08:27PM 36.6758 -79.5828 118° Southeast 385 443 21,800 -1,091 Descending Washington Center
08:28PM 36.6217 -79.4531 117° Southeast 385 443 20,600 -1,261 Descending Washington Center
08:29PM 36.5711 -79.3369 118° Southeast 385 443 19,300 -1,673 Descending Washington Center
08:30PM 36.5322 -79.2469 118° Southeast 373 429 17,700 -1,967 Descending Washington Center
08:30PM 36.5225 -79.2233 117° Southeast 380 437 17,300 -1,967 Descending Washington Center
08:31PM 36.4853 -79.1389 119° Southeast 357 411 15,700 -1,574 Descending Washington Center
08:31PM 36.4856 -79.1364 82° East 375 432 15,700 -1,967 Level Washington Center
08:32PM 36.4406 -79.0336 119° Southeast 348 400 13,700 -2,038 Descending Washington Center
08:33PM 36.3869 -78.9383 125° Southeast 339 390 12,100 -1,500 Descending Washington Center
08:34PM 36.2981 -78.9089 165° South 327 376 10,700 -992 Descending Washington Center
08:35PM 36.2172 -78.8847 166° South 298 343 10,100 -927 Descending Washington Center
08:36PM 36.1447 -78.8639 167° South 266 306 8,800 -976 Descending Washington Center
08:37PM 36.0703 -78.8428 167° South 267 307 8,100 -956 Descending Washington Center
08:38PM 36.0103 -78.8247 166° South 247 284 7,000 -1,200 Descending Washington Center
08:38PM 35.9997 -78.8244 179° South 259 298 6,700 -1,548 Descending Washington Center
08:39PM 35.9500 -78.8172 173° South 223 257 5,400 -1,700 Descending Washington Center
08:39PM 35.9433 -78.8272 231° Southwest 241 277 5,000 -1,770 Descending Washington Center
08:40PM 35.9006 -78.8639 215° Southwest 195 224 3,600 -1,554 Descending Washington Center
08:41PM 35.8517 -78.8953 207° Southwest 192 221 2,100 -938 Descending Washington Center
08:42PM 35.8281 -78.8431 119° Southeast 166 191 1,600 -700 Descending Washington Center
08:43PM 35.8542 -78.8108 45° Northeast 136 157 700 -915 Descending Washington Center
08:45PM 35.8667 -78.7833 90° East  Level FlightAware Approximate
08:52PM 35.8776 -78.7875 90° East  Level Estimated
08:53PM 35.8776 -78.7875 90° East  Level Estimated
08:54PM 35.8776 -78.7875 90° East  Level Estimated
08:55PM 35.8776 -78.7875 90° East  Level Estimated